| time (UTC) | temp F | wind direction | speed MPH | gust MPH | rain 1hr in | rain 24hr in | rain mn in | humidity % | barometer mb |
| 20260905154300 | 59 | 354 | 0.0 | 0.0 | 0.00 | 0.00 | 0.00 | 72 | 997.3 |
| 20260905153802 | 60 | 354 | 0.0 | 0.0 | 0.00 | 0.00 | 0.00 | 71 | 997.3 |
| 20260905153300 | 60 | 354 | 0.0 | 0.0 | 0.00 | 0.00 | 0.00 | 70 | 997.1 |
| 20260905152800 | 61 | 354 | 0.0 | 0.0 | 0.00 | 0.00 | 0.00 | 68 | 997.1 |
| 20260905152258 | 62 | 354 | 0.0 | 1.0 | 0.00 | 0.00 | 0.00 | 66 | 997.2 |
| 20260905151758 | 62 | 354 | 0.0 | 1.0 | 0.00 | 0.00 | 0.00 | 65 | 997.2 |
| 20260905151300 | 62 | 0 | 0.0 | 1.0 | 0.00 | 0.00 | 0.00 | 64 | 997.2 |
| 20260905150800 | 62 | 3 | 0.0 | 2.0 | 0.00 | 0.00 | 0.00 | 63 | 997.1 |
| 20260905150302 | 63 | 265 | 0.0 | 2.0 | 0.00 | 0.00 | 0.00 | 62 | 997.1 |
| 20260905145800 | 63 | 279 | 0.0 | 2.0 | 0.00 | 0.00 | 0.00 | 62 | 997.0 |
| 20260905144300 | 63 | 341 | 0.0 | 2.0 | 0.00 | 0.00 | 0.00 | 65 | 996.8 |
| 20260905143800 | 63 | 334 | 0.0 | 3.0 | 0.00 | 0.00 | 0.00 | 64 | 996.7 |
| 20260905143258 | 63 | 275 | 1.0 | 3.0 | 0.00 | 0.00 | 0.00 | 61 | 996.7 |
| 20260905142801 | 63 | 254 | 0.0 | 3.0 | 0.00 | 0.00 | 0.00 | 60 | 996.7 |
| 20260905141756 | 63 | 355 | 0.0 | 2.0 | 0.00 | 0.00 | 0.00 | 60 | 996.6 |
| 20260905140756 | 63 | 7 | 0.0 | 2.0 | 0.00 | 0.00 | 0.00 | 57 | 996.5 |
| 20260905140254 | 63 | 261 | 0.0 | 2.0 | 0.00 | 0.00 | 0.00 | 58 | 996.5 |
| 20260905135755 | 63 | 285 | 1.0 | 3.0 | 0.00 | 0.00 | 0.00 | 54 | 996.5 |
| 20260905135254 | 64 | 269 | 1.0 | 3.0 | 0.00 | 0.00 | 0.00 | 58 | 996.4 |
| 20260905134258 | 64 | 0 | 0.0 | 3.0 | 0.00 | 0.00 | 0.00 | 59 | 996.3 |
| 20260905133755 | 63 | 298 | 2.0 | 4.0 | 0.00 | 0.00 | 0.00 | 60 | 996.3 |
| 20260905132756 | 63 | 1 | 0.0 | 3.0 | 0.00 | 0.00 | 0.00 | 60 | 996.2 |
| 20260905132254 | 63 | 0 | 0.0 | 3.0 | 0.00 | 0.00 | 0.00 | 55 | 996.2 |
| 20260905131756 | 63 | 350 | 1.0 | 3.0 | 0.00 | 0.00 | 0.00 | 55 | 996.2 |
| 20260905131256 | 62 | 0 | 0.0 | 3.0 | 0.00 | 0.00 | 0.00 | 59 | 996.3 |
| 20260905130755 | 62 | 313 | 0.0 | 2.0 | 0.00 | 0.00 | 0.00 | 59 | 996.2 |
| 20260905130257 | 63 | 272 | 1.0 | 3.0 | 0.00 | 0.00 | 0.00 | 60 | 996.2 |
| 20260905125757 | 63 | 350 | 1.0 | 3.0 | 0.00 | 0.00 | 0.00 | 59 | 996.1 |
| 20260905125256 | 63 | 336 | 1.0 | 2.0 | 0.00 | 0.00 | 0.00 | 59 | 996.1 |
| 20260905124758 | 63 | 0 | 0.0 | 3.0 | 0.00 | 0.00 | 0.00 | 61 | 996.1 |
| 20260905124256 | 63 | 303 | 0.0 | 5.0 | 0.00 | 0.00 | 0.00 | 60 | 996.0 |
| 20260905123758 | 62 | 292 | 1.0 | 5.0 | 0.00 | 0.00 | 0.00 | 61 | 995.9 |
| 20260905123300 | 62 | 200 | 0.0 | 3.0 | 0.00 | 0.00 | 0.00 | 59 | 995.9 |
| 20260905121758 | 62 | 251 | 0.0 | 3.0 | 0.00 | 0.00 | 0.00 | 66 | 995.8 |
| 20260905121258 | 61 | 278 | 0.0 | 3.0 | 0.00 | 0.00 | 0.00 | 65 | 995.9 |
| 20260905120800 | 61 | 316 | 0.0 | 4.0 | 0.00 | 0.00 | 0.00 | 69 | 995.9 |
| 20260905115800 | 60 | 354 | 0.0 | 2.0 | 0.00 | 0.00 | 0.00 | 68 | 995.9 |
| 20260905115320 | 60 | 316 | 0.0 | 2.0 | 0.00 | 0.00 | 0.00 | 68 | 995.8 |
| 20260905114316 | 60 | 76 | 0.0 | 0.0 | 0.00 | 0.00 | 0.00 | 74 | 995.8 |
| 20260905112815 | 62 | 76 | 0.0 | 0.0 | 0.00 | 0.00 | 0.00 | 70 | 995.7 |
| 20260905111754 | 62 | 71 | 0.0 | 1.0 | 0.00 | 0.00 | 0.00 | 67 | 995.8 |
| 20260905111255 | 62 | 71 | 0.0 | 1.0 | 0.00 | 0.00 | 0.00 | 66 | 995.7 |
| 20260905110756 | 63 | 72 | 0.0 | 2.0 | 0.00 | 0.00 | 0.00 | 64 | 995.6 |
| 20260905110259 | 63 | 37 | 1.0 | 5.0 | 0.00 | 0.00 | 0.00 | 64 | 995.7 |
| 20260905105825 | 63 | 35 | 2.0 | 5.0 | 0.00 | 0.00 | 0.00 | 63 | 995.5 |
| 20260905104759 | 62 | 16 | 1.0 | 2.0 | 0.00 | 0.00 | 0.00 | 64 | 995.5 |
| 20260905104310 | 62 | 251 | 0.0 | 1.0 | 0.00 | 0.00 | 0.00 | 65 | 995.4 |
| 20260905102759 | 63 | 257 | 0.0 | 4.0 | 0.00 | 0.00 | 0.00 | 65 | 995.3 |
| 20260905102307 | 62 | 319 | 0.0 | 3.0 | 0.00 | 0.00 | 0.00 | 66 | 995.2 |
| 20260905101302 | 63 | 326 | 1.0 | 1.0 | 0.00 | 0.00 | 0.00 | 66 | 995.2 |
| 20260905100800 | 63 | 340 | 0.0 | 1.0 | 0.00 | 0.00 | 0.00 | 66 | 995.2 |
| 20260905100300 | 63 | 344 | 0.0 | 1.0 | 0.00 | 0.00 | 0.00 | 66 | 995.2 |
| 20260905095757 | 63 | 331 | 0.0 | 1.0 | 0.00 | 0.00 | 0.00 | 68 | 995.1 |
| 20260905095259 | 63 | 305 | 0.0 | 1.0 | 0.00 | 0.00 | 0.00 | 66 | 995.1 |
| 20260905094258 | 63 | 41 | 0.0 | 3.0 | 0.00 | 0.00 | 0.00 | 68 | 995.1 |
| 20260905093758 | 63 | 0 | 0.0 | 2.0 | 0.00 | 0.00 | 0.00 | 69 | 995.0 |
| 20260905093258 | 62 | 313 | 0.0 | 1.0 | 0.00 | 0.00 | 0.00 | 70 | 995.0 |
| 20260905092758 | 62 | 330 | 0.0 | 1.0 | 0.00 | 0.00 | 0.00 | 73 | 995.1 |
| 20260905092306 | 61 | 220 | 0.0 | 1.0 | 0.00 | 0.00 | 0.00 | 75 | 995.0 |
| 20260905091258 | 61 | 0 | 0.0 | 2.0 | 0.00 | 0.00 | 0.00 | 75 | 995.0 |
| 20260905090758 | 61 | 24 | 0.0 | 1.0 | 0.00 | 0.00 | 0.00 | 75 | 994.9 |
| 20260905090258 | 60 | 310 | 0.0 | 1.0 | 0.00 | 0.00 | 0.00 | 75 | 994.9 |
| 20260905085758 | 59 | 310 | 0.0 | 1.0 | 0.00 | 0.00 | 0.00 | 79 | 994.9 |
| 20260905085257 | 58 | 309 | 0.0 | 0.0 | 0.00 | 0.00 | 0.00 | 79 | 994.9 |
| 20260905084754 | 58 | 309 | 0.0 | 1.0 | 0.00 | 0.00 | 0.00 | 80 | 994.8 |
| 20260905084255 | 58 | 307 | 0.0 | 1.0 | 0.00 | 0.00 | 0.00 | 80 | 994.9 |
| 20260905083759 | 57 | 313 | 0.0 | 0.0 | 0.00 | 0.00 | 0.00 | 83 | 994.8 |
| 20260905083255 | 57 | 313 | 0.0 | 1.0 | 0.00 | 0.00 | 0.00 | 83 | 994.8 |
| 20260905082758 | 57 | 313 | 0.0 | 1.0 | 0.00 | 0.00 | 0.00 | 81 | 994.8 |
| 20260905082301 | 58 | 28 | 0.0 | 1.0 | 0.00 | 0.00 | 0.00 | 81 | 994.8 |
| 20260905081758 | 58 | 299 | 0.0 | 1.0 | 0.00 | 0.00 | 0.00 | 80 | 994.7 |
| 20260905081259 | 58 | 299 | 0.0 | 1.0 | 0.00 | 0.00 | 0.00 | 81 | 994.6 |
| 20260905080758 | 58 | 309 | 0.0 | 1.0 | 0.00 | 0.00 | 0.00 | 82 | 994.7 |
| 20260905075758 | 56 | 340 | 0.0 | 0.0 | 0.00 | 0.00 | 0.00 | 83 | 994.8 |
| 20260905075258 | 56 | 340 | 0.0 | 0.0 | 0.00 | 0.00 | 0.00 | 83 | 994.7 |
| 20260905074758 | 56 | 336 | 0.0 | 1.0 | 0.00 | 0.00 | 0.00 | 83 | 994.7 |
| 20260905074258 | 56 | 340 | 0.0 | 1.0 | 0.00 | 0.00 | 0.00 | 82 | 994.7 |
| 20260905073757 | 56 | 340 | 0.0 | 1.0 | 0.00 | 0.00 | 0.00 | 83 | 994.6 |
| 20260905073257 | 54 | 0 | 0.0 | 1.0 | 0.00 | 0.00 | 0.00 | 85 | 994.6 |
| 20260905072758 | 53 | 0 | 0.0 | 1.0 | 0.00 | 0.00 | 0.00 | 88 | 994.6 |
| 20260905072305 | 53 | 0 | 0.0 | 0.0 | 0.00 | 0.00 | 0.00 | 88 | 994.6 |
| 20260905071758 | 53 | 0 | 0.0 | 0.0 | 0.00 | 0.00 | 0.00 | 88 | 994.6 |
| 20260905071301 | 53 | 0 | 0.0 | 0.0 | 0.00 | 0.00 | 0.00 | 87 | 994.6 |
| 20260905070757 | 53 | 1 | 0.0 | 0.0 | 0.00 | 0.00 | 0.00 | 87 | 994.5 |
| 20260905070304 | 54 | 1 | 0.0 | 0.0 | 0.00 | 0.00 | 0.00 | 87 | 994.4 |
| 20260905065759 | 54 | 1 | 0.0 | 0.0 | 0.00 | 0.00 | 0.00 | 87 | 994.4 |
| 20260905065300 | 54 | 1 | 0.0 | 0.0 | 0.00 | 0.00 | 0.00 | 86 | 994.3 |
| 20260905064759 | 54 | 8 | 0.0 | 0.0 | 0.00 | 0.00 | 0.00 | 86 | 994.4 |
| 20260905064323 | 55 | 8 | 0.0 | 0.0 | 0.00 | 0.00 | 0.00 | 86 | 994.3 |
| 20260905063258 | 55 | 8 | 0.0 | 0.0 | 0.00 | 0.00 | 0.00 | 85 | 994.2 |
| 20260905062757 | 54 | 8 | 0.0 | 0.0 | 0.00 | 0.00 | 0.00 | 87 | 994.2 |
| 20260905062259 | 53 | 11 | 0.0 | 1.0 | 0.00 | 0.00 | 0.00 | 87 | 994.1 |
| 20260905061801 | 54 | 7 | 0.0 | 1.0 | 0.00 | 0.00 | 0.00 | 86 | 994.1 |
| 20260905060800 | 53 | 34 | 0.0 | 1.0 | 0.00 | 0.00 | 0.00 | 87 | 994.0 |
| 20260905060257 | 52 | 79 | 0.0 | 0.0 | 0.00 | 0.00 | 0.00 | 88 | 994.1 |
| 20260905055800 | 52 | 79 | 0.0 | 0.0 | 0.00 | 0.00 | 0.00 | 88 | 994.1 |
| 20260905055259 | 51 | 79 | 0.0 | 0.0 | 0.00 | 0.00 | 0.00 | 88 | 994.1 |
| 20260905054800 | 51 | 79 | 0.0 | 0.0 | 0.00 | 0.00 | 0.00 | 89 | 994.1 |
| 20260905054233 | 50 | 79 | 0.0 | 0.0 | 0.00 | 0.00 | 0.00 | 91 | 994.1 |
| 20260905053731 | 49 | 79 | 0.0 | 0.0 | 0.00 | 0.00 | 0.00 | 92 | 994.0 |
| 20260905053229 | 49 | 79 | 0.0 | 0.0 | 0.00 | 0.00 | 0.00 | 93 | 994.1 |
| 20260905052817 | 47 | 79 | 0.0 | 0.0 | 0.00 | 0.00 | 0.00 | 94 | 994.1 |
| 20260905051730 | 46 | 79 | 0.0 | 0.0 | 0.00 | 0.00 | 0.00 | 94 | 994.1 |
| 20260905051229 | 46 | 79 | 0.0 | 0.0 | 0.00 | 0.00 | 0.00 | 93 | 994.0 |
| 20260905050742 | 46 | 79 | 0.0 | 0.0 | 0.00 | 0.00 | 0.00 | 93 | 994.1 |
| 20260905045715 | 45 | 79 | 0.0 | 0.0 | 0.00 | 0.00 | 0.00 | 92 | 994.1 |
| 20260905045215 | 44 | 79 | 0.0 | 0.0 | 0.00 | 0.00 | 0.00 | 92 | 994.0 |
| 20260905044715 | 44 | 79 | 0.0 | 0.0 | 0.00 | 0.00 | 0.00 | 92 | 994.0 |
| 20260905044216 | 44 | 79 | 0.0 | 0.0 | 0.00 | 0.00 | 0.00 | 92 | 994.0 |
| 20260905043717 | 44 | 79 | 0.0 | 0.0 | 0.00 | 0.00 | 0.00 | 92 | 994.1 |
| 20260905043211 | 44 | 79 | 0.0 | 0.0 | 0.00 | 0.00 | 0.00 | 92 | 994.0 |
| 20260905042709 | 44 | 79 | 0.0 | 0.0 | 0.00 | 0.00 | 0.00 | 91 | 994.2 |
| 20260905042206 | 44 | 79 | 0.0 | 0.0 | 0.00 | 0.00 | 0.00 | 91 | 994.2 |
| 20260905041717 | 44 | 79 | 0.0 | 0.0 | 0.00 | 0.00 | 0.00 | 91 | 994.1 |
| 20260905040707 | 44 | 79 | 0.0 | 0.0 | 0.00 | 0.00 | 0.00 | 92 | 994.2 |
| 20260905040209 | 44 | 79 | 0.0 | 0.0 | 0.00 | 0.00 | 0.00 | 91 | 994.1 |
| 20260905035723 | 44 | 79 | 0.0 | 0.0 | 0.00 | 0.00 | 0.00 | 91 | 994.0 |
| 20260905034201 | 44 | 79 | 0.0 | 0.0 | 0.00 | 0.00 | 0.00 | 91 | 994.2 |
| 20260905033707 | 44 | 79 | 0.0 | 0.0 | 0.00 | 0.00 | 0.00 | 91 | 994.1 |
| 20260905033202 | 44 | 79 | 0.0 | 0.0 | 0.00 | 0.00 | 0.00 | 91 | 994.1 |
| 20260905032704 | 44 | 79 | 0.0 | 0.0 | 0.00 | 0.00 | 0.00 | 91 | 994.1 |
| 20260905032156 | 44 | 79 | 0.0 | 0.0 | 0.00 | 0.00 | 0.00 | 91 | 994.1 |
| 20260905031655 | 44 | 79 | 0.0 | 0.0 | 0.00 | 0.00 | 0.00 | 91 | 994.1 |
| 20260905031156 | 45 | 79 | 0.0 | 0.0 | 0.00 | 0.00 | 0.00 | 91 | 994.2 |
| 20260905030655 | 45 | 79 | 0.0 | 0.0 | 0.00 | 0.00 | 0.00 | 92 | 994.2 |
| 20260905030155 | 45 | 79 | 0.0 | 0.0 | 0.00 | 0.00 | 0.00 | 91 | 994.1 |
| 20260905025657 | 45 | 79 | 0.0 | 0.0 | 0.00 | 0.00 | 0.00 | 91 | 994.2 |
| 20260905025156 | 45 | 79 | 0.0 | 0.0 | 0.00 | 0.00 | 0.00 | 92 | 994.2 |
| 20260905024701 | 45 | 79 | 0.0 | 0.0 | 0.00 | 0.00 | 0.00 | 92 | 994.2 |
| 20260905024158 | 45 | 79 | 0.0 | 0.0 | 0.00 | 0.00 | 0.00 | 92 | 994.2 |
| 20260905023700 | 45 | 79 | 0.0 | 0.0 | 0.00 | 0.00 | 0.00 | 92 | 994.2 |
| 20260905023158 | 45 | 79 | 0.0 | 0.0 | 0.00 | 0.00 | 0.00 | 92 | 994.3 |
| 20260905022658 | 45 | 79 | 0.0 | 0.0 | 0.00 | 0.00 | 0.00 | 92 | 994.2 |
| 20260905022158 | 45 | 79 | 0.0 | 0.0 | 0.00 | 0.00 | 0.00 | 92 | 994.2 |
| 20260905021659 | 45 | 79 | 0.0 | 0.0 | 0.00 | 0.00 | 0.00 | 92 | 994.2 |
| 20260905021157 | 45 | 79 | 0.0 | 0.0 | 0.00 | 0.00 | 0.00 | 92 | 994.1 |
| 20260905020659 | 45 | 79 | 0.0 | 0.0 | 0.00 | 0.00 | 0.00 | 92 | 994.1 |
| 20260905020157 | 45 | 79 | 0.0 | 0.0 | 0.00 | 0.00 | 0.00 | 92 | 994.2 |
| 20260905015657 | 45 | 79 | 0.0 | 0.0 | 0.00 | 0.00 | 0.00 | 91 | 994.2 |
| 20260905015159 | 45 | 79 | 0.0 | 0.0 | 0.00 | 0.00 | 0.00 | 91 | 994.2 |
| 20260905014705 | 45 | 79 | 0.0 | 0.0 | 0.00 | 0.00 | 0.00 | 91 | 994.2 |
| 20260905013658 | 45 | 79 | 0.0 | 0.0 | 0.00 | 0.00 | 0.00 | 91 | 994.2 |
| 20260905013200 | 45 | 79 | 0.0 | 0.0 | 0.00 | 0.00 | 0.00 | 90 | 994.2 |
| 20260905012158 | 45 | 79 | 0.0 | 0.0 | 0.00 | 0.00 | 0.00 | 90 | 994.2 |
| 20260905011657 | 45 | 79 | 0.0 | 0.0 | 0.00 | 0.00 | 0.00 | 91 | 994.2 |
| 20260905011159 | 45 | 79 | 0.0 | 0.0 | 0.00 | 0.00 | 0.00 | 90 | 994.2 |
| 20260905010659 | 45 | 79 | 0.0 | 0.0 | 0.00 | 0.00 | 0.00 | 90 | 994.2 |
| 20260905010202 | 45 | 79 | 0.0 | 0.0 | 0.00 | 0.00 | 0.00 | 90 | 994.2 |
| 20260905005706 | 45 | 79 | 0.0 | 0.0 | 0.00 | 0.00 | 0.00 | 90 | 994.1 |
| 20260905005202 | 45 | 79 | 0.0 | 0.0 | 0.00 | 0.00 | 0.00 | 90 | 994.1 |
| 20260905004158 | 46 | 79 | 0.0 | 0.0 | 0.00 | 0.00 | 0.00 | 90 | 994.1 |
| 20260905003659 | 46 | 79 | 0.0 | 0.0 | 0.00 | 0.00 | 0.00 | 90 | 994.2 |
| 20260905003157 | 46 | 79 | 0.0 | 0.0 | 0.00 | 0.00 | 0.00 | 90 | 994.1 |
| 20260905002658 | 46 | 79 | 0.0 | 0.0 | 0.00 | 0.00 | 0.00 | 90 | 994.2 |
| 20260905002200 | 46 | 79 | 0.0 | 0.0 | 0.00 | 0.00 | 0.00 | 90 | 994.2 |
| 20260905001702 | 46 | 79 | 0.0 | 0.0 | 0.00 | 0.00 | 0.00 | 90 | 994.2 |
| 20260905000657 | 46 | 79 | 0.0 | 0.0 | 0.00 | 0.00 | 0.00 | 90 | 994.2 |
| 20260905000200 | 46 | 79 | 0.0 | 0.0 | 0.00 | 0.00 | 0.00 | 90 | 994.3 |
| 20260904235657 | 46 | 79 | 0.0 | 0.0 | 0.00 | 0.00 | 0.00 | 90 | 994.2 |
| 20260904235158 | 46 | 79 | 0.0 | 0.0 | 0.00 | 0.00 | 0.00 | 90 | 994.2 |
| 20260904234659 | 47 | 79 | 0.0 | 0.0 | 0.00 | 0.00 | 0.00 | 90 | 994.4 |
| 20260904234158 | 47 | 79 | 0.0 | 0.0 | 0.00 | 0.00 | 0.00 | 90 | 994.4 |
| 20260904233642 | 47 | 79 | 0.0 | 0.0 | 0.00 | 0.00 | 0.00 | 90 | 994.4 |
| 20260904232632 | 47 | 79 | 0.0 | 0.0 | 0.00 | 0.00 | 0.00 | 90 | 994.6 |
| 20260904232129 | 47 | 79 | 0.0 | 0.0 | 0.00 | 0.00 | 0.00 | 90 | 994.7 |
| 20260904231626 | 47 | 79 | 0.0 | 0.0 | 0.00 | 0.00 | 0.00 | 90 | 994.7 |
| 20260904231128 | 47 | 79 | 0.0 | 0.0 | 0.00 | 0.00 | 0.00 | 90 | 994.7 |
| 20260904230744 | 47 | 79 | 0.0 | 0.0 | 0.00 | 0.00 | 0.00 | 89 | 994.7 |
| 20260904224120 | 48 | 79 | 0.0 | 0.0 | 0.00 | 0.00 | 0.00 | 90 | 994.8 |
| 20260904223615 | 48 | 79 | 0.0 | 0.0 | 0.00 | 0.00 | 0.00 | 90 | 995.0 |
| 20260904223115 | 49 | 79 | 0.0 | 0.0 | 0.00 | 0.00 | 0.00 | 90 | 995.0 |
| 20260904222612 | 49 | 79 | 0.0 | 0.0 | 0.00 | 0.00 | 0.00 | 90 | 994.9 |
| 20260904222107 | 49 | 79 | 0.0 | 0.0 | 0.00 | 0.00 | 0.00 | 90 | 994.9 |
| 20260904221627 | 49 | 79 | 0.0 | 0.0 | 0.00 | 0.00 | 0.00 | 90 | 995.0 |
| 20260904220606 | 49 | 79 | 0.0 | 0.0 | 0.00 | 0.00 | 0.00 | 90 | 995.1 |
| 20260904215600 | 49 | 79 | 0.0 | 0.0 | 0.00 | 0.00 | 0.00 | 90 | 995.2 |
| 20260904215133 | 49 | 79 | 0.0 | 0.0 | 0.00 | 0.00 | 0.00 | 90 | 995.2 |
| 20260904214059 | 50 | 79 | 0.0 | 0.0 | 0.00 | 0.00 | 0.00 | 90 | 995.3 |
| 20260904213557 | 50 | 79 | 0.0 | 0.0 | 0.00 | 0.00 | 0.00 | 90 | 995.3 |
| 20260904213057 | 50 | 79 | 0.0 | 0.0 | 0.00 | 0.00 | 0.00 | 90 | 995.3 |
| 20260904212559 | 50 | 79 | 0.0 | 0.0 | 0.00 | 0.00 | 0.00 | 89 | 995.3 |
| 20260904211556 | 51 | 79 | 0.0 | 0.0 | 0.00 | 0.00 | 0.00 | 90 | 995.5 |
| 20260904211057 | 51 | 79 | 0.0 | 0.0 | 0.00 | 0.00 | 0.00 | 89 | 995.4 |
| 20260904210559 | 51 | 79 | 0.0 | 0.0 | 0.00 | 0.00 | 0.00 | 89 | 995.4 |
| 20260904210057 | 51 | 79 | 0.0 | 0.0 | 0.00 | 0.00 | 0.00 | 89 | 995.5 |
| 20260904205557 | 52 | 79 | 0.0 | 0.0 | 0.00 | 0.00 | 0.00 | 89 | 995.5 |
| 20260904205057 | 52 | 79 | 0.0 | 0.0 | 0.00 | 0.00 | 0.00 | 90 | 995.6 |
| 20260904204058 | 52 | 79 | 0.0 | 0.0 | 0.00 | 0.00 | 0.00 | 90 | 995.6 |
| 20260904203600 | 52 | 79 | 0.0 | 0.0 | 0.00 | 0.00 | 0.00 | 90 | 995.6 |
| 20260904203057 | 52 | 79 | 0.0 | 0.0 | 0.00 | 0.00 | 0.00 | 90 | 995.7 |
| 20260904202557 | 52 | 79 | 0.0 | 0.0 | 0.00 | 0.00 | 0.00 | 90 | 995.7 |
| 20260904202058 | 52 | 79 | 0.0 | 0.0 | 0.00 | 0.00 | 0.00 | 90 | 995.9 |
| 20260904201557 | 52 | 79 | 0.0 | 0.0 | 0.00 | 0.00 | 0.00 | 90 | 995.8 |
| 20260904201057 | 53 | 79 | 0.0 | 0.0 | 0.00 | 0.00 | 0.00 | 90 | 995.9 |
| 20260904200556 | 53 | 79 | 0.0 | 0.0 | 0.00 | 0.00 | 0.00 | 90 | 995.9 |
| 20260904200057 | 53 | 79 | 0.0 | 0.0 | 0.00 | 0.00 | 0.00 | 90 | 996.0 |
| 20260904195559 | 53 | 79 | 0.0 | 0.0 | 0.00 | 0.00 | 0.00 | 90 | 996.1 |
| 20260904195057 | 53 | 79 | 0.0 | 0.0 | 0.00 | 0.00 | 0.00 | 90 | 996.1 |
| 20260904194613 | 53 | 79 | 0.0 | 0.0 | 0.00 | 0.00 | 0.00 | 90 | 996.1 |
| 20260904193556 | 53 | 79 | 0.0 | 0.0 | 0.00 | 0.00 | 0.00 | 90 | 996.0 |
| 20260904193101 | 53 | 79 | 0.0 | 0.0 | 0.00 | 0.00 | 0.00 | 90 | 996.2 |
| 20260904192557 | 53 | 79 | 0.0 | 0.0 | 0.00 | 0.00 | 0.00 | 90 | 996.2 |
| 20260904191556 | 53 | 79 | 0.0 | 0.0 | 0.00 | 0.00 | 0.00 | 90 | 996.2 |
| 20260904191100 | 53 | 79 | 0.0 | 0.0 | 0.00 | 0.00 | 0.00 | 89 | 996.3 |
| 20260904190558 | 53 | 79 | 0.0 | 0.0 | 0.00 | 0.00 | 0.00 | 89 | 996.4 |
| 20260904185556 | 53 | 79 | 0.0 | 0.0 | 0.00 | 0.00 | 0.00 | 89 | 996.6 |
| 20260904185059 | 53 | 79 | 0.0 | 0.0 | 0.00 | 0.00 | 0.00 | 89 | 996.6 |
| 20260904184609 | 53 | 79 | 0.0 | 0.0 | 0.00 | 0.00 | 0.00 | 89 | 996.6 |
| 20260904183616 | 53 | 79 | 0.0 | 0.0 | 0.00 | 0.00 | 0.00 | 89 | 996.6 |
| 20260904181057 | 53 | 79 | 0.0 | 0.0 | 0.00 | 0.00 | 0.00 | 88 | 996.9 |
| 20260904180558 | 53 | 79 | 0.0 | 0.0 | 0.00 | 0.00 | 0.00 | 88 | 996.9 |
| 20260904180100 | 53 | 79 | 0.0 | 0.0 | 0.00 | 0.00 | 0.00 | 88 | 996.9 |
| 20260904175535 | 53 | 79 | 0.0 | 0.0 | 0.00 | 0.00 | 0.00 | 88 | 996.9 |
| 20260904175050 | 53 | 79 | 0.0 | 0.0 | 0.00 | 0.00 | 0.00 | 87 | 997.0 |
| 20260904174031 | 54 | 79 | 0.0 | 0.0 | 0.00 | 0.00 | 0.00 | 87 | 997.0 |
| 20260904173546 | 54 | 79 | 0.0 | 0.0 | 0.00 | 0.00 | 0.00 | 86 | 997.0 |
| 20260904172546 | 55 | 79 | 0.0 | 0.0 | 0.00 | 0.00 | 0.00 | 85 | 997.0 |
| 20260904171530 | 55 | 79 | 0.0 | 0.0 | 0.00 | 0.00 | 0.00 | 85 | 997.0 |
| 20260904171032 | 55 | 79 | 0.0 | 0.0 | 0.00 | 0.00 | 0.00 | 85 | 997.1 |
| 20260904170533 | 56 | 79 | 0.0 | 0.0 | 0.00 | 0.00 | 0.00 | 85 | 996.9 |
| 20260904170033 | 56 | 79 | 0.0 | 0.0 | 0.00 | 0.00 | 0.00 | 84 | 997.1 |
| 20260904165545 | 56 | 79 | 0.0 | 0.0 | 0.00 | 0.00 | 0.00 | 84 | 997.0 |
| 20260904164530 | 57 | 49 | 0.0 | 0.0 | 0.00 | 0.00 | 0.00 | 83 | 997.1 |
| 20260904163528 | 57 | 49 | 0.0 | 0.0 | 0.00 | 0.00 | 0.00 | 82 | 997.1 |
| 20260904162518 | 58 | 49 | 0.0 | 0.0 | 0.00 | 0.00 | 0.00 | 82 | 997.2 |
| 20260904162017 | 58 | 47 | 0.0 | 1.0 | 0.00 | 0.00 | 0.00 | 82 | 997.2 |
| 20260904161518 | 58 | 47 | 0.0 | 1.0 | 0.00 | 0.00 | 0.00 | 81 | 997.2 |
| 20260904161026 | 59 | 37 | 0.0 | 1.0 | 0.00 | 0.00 | 0.00 | 81 | 997.3 |
| 20260904160017 | 59 | 104 | 0.0 | 1.0 | 0.00 | 0.00 | 0.00 | 81 | 997.2 |
| 20260904155514 | 59 | 104 | 0.0 | 1.0 | 0.00 | 0.00 | 0.00 | 81 | 997.4 |
| 20260904155014 | 59 | 90 | 0.0 | 2.0 | 0.00 | 0.00 | 0.00 | 81 | 997.3 |